Regional Weather Roundup
Issued by NWS

Home | Current Version | Previous Version | Graphics & Text | Print | Product List | Glossary On
Versions: 1 2 3 4 5 6 7 8 9 10 11 12 13 14 15 16 17 18 19 20 21 22 23 24 25 26 27 28 29 30 31 32 33 34 35 36 37 38 39 40 41 42 43 44 45 46 47 48 49 50
697
ASUS43 KMKX 301100
RWRWI

WISCONSIN REGIONAL WEATHER ROUNDUP
NATIONAL WEATHER SERVICE MILWAUKEE/SULLIVAN WI
600 AM CDT TUE MAY 30 2017

NOTE: "FAIR" INDICATES FEW OR NO CLOUDS BELOW 12,000 FEET WITH NO
SIGNIFICANT WEATHER AND/OR OBSTRUCTIONS TO VISIBILITY.

WIZ001-002-006>008-014>016-023>028-301200-
NORTHWEST WISCONSIN

CITY           SKY/WX    TMP DP  RH WIND       PRES   REMARKS
SUPERIOR ARPT  NOT AVBL
ASHLAND        CLOUDY    48  46  93 SW6       29.78R
HAYWARD        CLOUDY    48  43  82 VRB6      29.81R
SIREN          DRIZZLE   48  43  81 NW14      29.84R
CUMBERLAND     RAIN      46  45  93 W15       29.82R
RICE LAKE      RAIN      49  46  89 SW13      29.84R
CHETEK         CLOUDY    50  47  88 W6        29.83R
LADYSMITH      CLOUDY    49  46  89 SW6       29.83S
EAU CLAIRE     NOT AVBL
MENOMONIE      CLOUDY    52  47  83 SW9       29.85S
NEW RICHMOND   CLOUDY    51  44  76 W15       29.85R
OSCEOLA        CLOUDY    52  43  73 W9G16     29.88R
$$

WIZ003>005-009-010-017-018-301200-
NORTH CENTRAL WISCONSIN

CITY           SKY/WX    TMP DP  RH WIND       PRES   REMARKS
MANITOWISH WTR CLOUDY    48  48 100 SW8       29.75R
ARBOR VITAE    CLOUDY    52  49  90 W8        29.76S
WOODRUFF       CLOUDY    52  49  90 W8        29.76S
RHINELANDER    CLOUDY    50  48  93 SW8       29.79R
EAGLE RIVER    CLOUDY    49  47  96 SW5       29.76R
LAND O LAKES   CLOUDY    49  47  92 SW3       29.77R
PHILLIPS       CLOUDY    47  47  99 SW6       29.79R
TOMAHAWK       CLOUDY    47  45  93 SW3       29.80R
MEDFORD        MOCLDY    46  45  96 SW6       29.82R
MERRILL        CLOUDY    48  47  97 W8        29.82R
$$

WIZ029-030-035-036-043>047-301200-
CENTRAL WISCONSIN

CITY           SKY/WX    TMP DP  RH WIND       PRES   REMARKS
WAUSAU         CLOUDY    49  47  93 W8        29.81R
MOSINEE        MOCLDY    48  48 100 SW8       29.84S
MARSHFIELD     CLOUDY    48  45  89 W8        29.83R
STEVENS POINT  CLOUDY    49  47  95 W6        29.85R
WAUPACA        CLOUDY    53  49  85 SW6       29.85R
WAUTOMA        PTCLDY    50  48  93 SW6       29.87R
WISC RAPIDS    MOCLDY    49  47  93 SW6       29.87R
CAMP DOUGLAS   NOT AVBL
$$

WIZ011>013-019>022-031-037>040-048>050-301200-
NORTHEAST WISCONSIN

CITY           SKY/WX    TMP DP  RH WIND       PRES   REMARKS
ANTIGO         CLOUDY    47  47  97 SW7       29.81R
SHAWANO        MOCLDY    51  48  90 SW5       29.83R
OCONTO         CLEAR     48  47  98 SW5       29.81S
STURGEON BAY   CLEAR     52  50  93 W7        29.82R
GREEN BAY      PTCLDY    51  50  96 SW3       29.83R
MANITOWOC      NOT AVBL
APPLETON       MOCLDY    52  48  87 W12       29.84R
CLINTONVILLE   CLOUDY    50  46  87 SW8       29.84R
OSHKOSH        CLOUDY    52  47  83 VRB3      29.85R
$$

WIZ032>034-041-042-053>061-301200-
SOUTHWEST WISCONSIN

CITY           SKY/WX    TMP DP  RH WIND       PRES   REMARKS
LA CROSSE      CLOUDY    55  47  74 W8        29.90R
SPARTA         CLOUDY    48  47  98 CALM      29.89R
VIROQUA        MOCLDY    49  46  89 SW9       29.91R
BOSCOBEL       CLEAR     51  47  86 CALM      29.93R
PRAIRIE DU CHI PTCLDY    52  45  76 W6        29.94R
PLATTEVILLE    CLEAR     51  49  93 W8        29.95R
$$

WIZ056-057-062-063-064-067-068-301200-
SOUTH CENTRAL WISCONSIN

CITY           SKY/WX    TMP DP  RH WIND       PRES   REMARKS
REEDSBURG      CLEAR     50  49  99 W5        29.89S
BARABOO/DELLS  CLEAR     50  46  87 W8        29.89R
LONE ROCK      NOT AVBL
MINERAL POINT  CLEAR     52  48  87 W7        29.93R
MADISON        PTCLDY    53  48  83 VRB6      29.90R
MIDDLETON      PTCLDY    52  48  88 W7        29.91R
WATERTOWN      MOCLDY    49  49 100 SW6       29.89S
MONROE         PTCLDY    52  46  82 SW13      29.93R
JANESVILLE     CLEAR     52  46  82 W8        29.92R
$$

WIZ051-052-058>065-066-070>072-301200-
SOUTHEAST WISCONSIN

CITY           SKY/WX    TMP DP  RH WIND       PRES   REMARKS
MILWAUKEE      PTCLDY    54  49  83 W6        29.90R
WAUKESHA       CLEAR     52  46  82 W7        29.91R
MILWAUKEE/TIMM   N/A     52  45  76 W9        29.90R
RACINE         CLEAR     54  46  74 W6        29.92R
KENOSHA        CLEAR     51  47  86 W7        29.91R
FOND DU LAC    MOCLDY    50  45  83 SW6       29.87R
SHEBOYGAN      CLEAR     50  49  96 W8        29.86R
WEST BEND      CLEAR     50  46  87 W7        29.88S
JUNEAU         PTCLDY    48  46  93 SW3       29.90R
$$

LSZ147-162-301200-
LAKE SUPERIOR

STATION/POSITION TIME  TEMP    WIND        PRES    WAVE
                       AIR SEA DIR/SP/G            HT/PER
                 (UTC) (F)     (DEG/KT/KT) (MB)    (FT/S)
DEVILS ISLAND    1000   45     250/ 13/ 15 1007.3S
SAXON HARBOR     1040   50     230/  7/ 11 1007.8R
$$

LMZ867-665-643>646-301200-
LAKE MICHIGAN

STATION/POSITION TIME  TEMP    WIND        PRES    WAVE
                       AIR SEA DIR/SP/G            HT/PER
                 (UTC) (F)     (DEG/KT/KT) (MB)    (FT/S)
CHAMBERS ISLAND  1040   52     210/  5/  9 1008.5R
NORTHPORT PIER   1040   54     250/  3/  8 1008.8R
KEWAUNEE LAKESHO 1030   53     270/  6/  8 1009.5R
SHEBOYGAN LAKESH 1000   54     260/ 11/ 14 1010.4R
PORT WASHINGTON  1040   55     260/  6/ 11 1012.5R
ATWATER BUOY     0909   54     250/  8/ 12 1011.4R
MILWAUKEE LAKESH 1030   55     260/  8/  9   N/A
KENOSHA   LAKESH 1000   56     260/  8/ 12 1012.2
$$

TC  - TEMPERATURE IN CELSIUS
VSB - VISIBILITY IN STATUTE MILES
WCI - WIND CHILL INDEX
HX  - HEAT INDEX





USA.gov is the U.S. government's official web portal to all federal, state and local government web resources and services.